Pensacola, FL

6:09 AM CST on February 24, 2017 (GMT -0600)
Pensacola Regional

Weather History for KPNS - October, 2012

Change the Weather History Date:

Friday, October 12, 2012

  Actual Average Record
Temperature  
Mean Temperature 74 °F 71 °F  
Max Temperature 85 °F 80 °F 90 °F (1991)
Min Temperature 62 °F 62 °F 44 °F (2000)
Degree Days  
Heating Degree Days 0 1  
Month to date heating degree days 0 2  
Since 1 July heating degree days 0 3  
Cooling Degree Days 9 6  
Month to date cooling degree days 95 94  
Year to date cooling degree days 2907 2464  
Growing Degree Days 24 (Base 50)    
Moisture  
Dew Point 62 °F    
Average Humidity 69    
Maximum Humidity 93    
Minimum Humidity 44    
Precipitation  
Precipitation 0.00 in 0.16 in 3.26 in (1986)
Month to date precipitation 0.37 2.09  
Year to date precipitation 61.14 52.84  
Sea Level Pressure  
Sea Level Pressure 30.21 in    
Wind  
Wind Speed 4 mph (NW)    
Max Wind Speed 15 mph    
Max Gust Speed 28 mph    
Visibility 9 miles    
Events      
T = Trace of Precipitation, MM = Missing Value Source: NWS Daily Summary

Daily Weather History Graph

Daily Weather History Graph

Search for Another Location

Airport or City:

Trip Planner

Search our weather history database for the weather conditions in past years. The results will help you decide how hot, cold, wet, or windy it might be!

Date:

Astronomy

Oct. 12, 2012 Rise Set
Actual Time 6:49 AM CDT 6:20 PM CDT
Civil Twilight 6:25 AM CDT 6:44 PM CDT
Nautical Twilight 5:57 AM CDT 7:12 PM CDT
Astronomical Twilight 5:29 AM CDT 7:40 PM CDT
Moon 3:43 AM CDT (10/12) 4:20 PM CDT (10/12)
Length of Visible Light 12h 19m
Length of Day
11h 31m
Waning Crescent, 10% of the Moon is Illuminated
Oct 12
Waning Crescent
Oct 15
New
Oct 21
First Quarter
Oct 29
Full
Nov 6
Last Quarter

Hourly Weather History & Observations

Time (CDT) Temp. Heat Index Dew Point Humidity Pressure Visibility Wind Dir Wind Speed Gust Speed Precip Events Conditions
12:53 AM 66.2 °F - 62.6 °F 88% 30.20 in 9.0 mi North 4.6 mph - N/A   Clear
1:53 AM 64.9 °F - 62.1 °F 90% 30.20 in 7.0 mi North 5.8 mph - N/A   Clear
2:53 AM 66.2 °F - 62.6 °F 88% 30.18 in 9.0 mi North 4.6 mph - N/A   Clear
3:53 AM 66.0 °F - 62.1 °F 87% 30.18 in 10.0 mi North 4.6 mph - N/A   Clear
4:53 AM 64.9 °F - 62.1 °F 90% 30.18 in 9.0 mi North 4.6 mph - N/A   Clear
5:53 AM 63.0 °F - 60.1 °F 90% 30.20 in 8.0 mi Calm Calm - N/A   Clear
6:53 AM 64.0 °F - 61.0 °F 90% 30.21 in 6.0 mi North 5.8 mph - N/A   Clear
7:53 AM 66.9 °F - 63.0 °F 87% 30.24 in 5.0 mi NNE 5.8 mph - N/A   Clear
8:53 AM 71.6 °F - 64.4 °F 78% 30.25 in 10.0 mi NE 5.8 mph - N/A   Clear
9:53 AM 77.0 °F - 63.0 °F 62% 30.27 in 10.0 mi East 4.6 mph - N/A   Clear
10:53 AM 80.1 °F 80.7 °F 59.0 °F 48% 30.27 in 10.0 mi Variable 4.6 mph - N/A   Clear
11:53 AM 81.0 °F 81.3 °F 59.0 °F 47% 30.27 in 10.0 mi Calm Calm - N/A   Clear
12:53 PM 84.0 °F 84.0 °F 60.1 °F 44% 30.24 in 10.0 mi South 5.8 mph - N/A   Clear
1:53 PM 82.9 °F 83.3 °F 61.0 °F 47% 30.22 in 10.0 mi South 5.8 mph - N/A   Clear
2:53 PM 82.9 °F 83.7 °F 62.1 °F 49% 30.20 in 10.0 mi South 6.9 mph - N/A   Clear
3:53 PM 82.0 °F 82.7 °F 61.0 °F 49% 30.19 in 10.0 mi South 6.9 mph - N/A   Clear
4:53 PM 82.4 °F 83.4 °F 62.6 °F 51% 30.18 in 10.0 mi SSW 8.1 mph - N/A   Clear
5:53 PM 78.1 °F - 61.0 °F 56% 30.19 in 10.0 mi SSW 6.9 mph - N/A   Clear
6:53 PM 75.0 °F - 63.0 °F 66% 30.20 in 10.0 mi SSW 4.6 mph - N/A   Clear
7:53 PM 75.0 °F - 64.9 °F 71% 30.21 in 10.0 mi WSW 5.8 mph - N/A   Clear
8:53 PM 73.4 °F - 64.4 °F 73% 30.21 in 10.0 mi West 4.6 mph - N/A   Clear
9:53 PM 72.0 °F - 64.9 °F 78% 30.22 in 10.0 mi Calm Calm - N/A   Clear
10:53 PM 71.1 °F - 64.9 °F 81% 30.22 in 10.0 mi Calm Calm - N/A   Clear
11:10 PM 71.6 °F - 64.4 °F 78% 30.21 in 10.0 mi Calm Calm - N/A   Partly Cloudy
11:53 PM 70.0 °F - 64.0 °F 81% 30.20 in 10.0 mi Calm Calm - N/A   Clear